Location: Karcze
(52.0945°N, 22.4786°E)
Time: 23:54:36
(UTC+00:00)

Transit 4A - Pass Details

Date: 02 August 2021
Orbit: 871 x 974 km, 66.8° (Epoch: 18 September)

Event Time Altitude Azimuth Distance (km) Brightness Sun altitude
Exits shadow 00:30:40 - 262° (W) 2,840 10.1 -15.9°
Reaches altitude 10° 00:31:36 10° 266° (W) 2,531 9.9 -15.8°
Maximum altitude 00:36:48 32° 329° (NNW) 1,459 9.2 -15.4°
Drops below altitude 10° 00:42:00 10° 32° (NNE) 2,531 11.6 -15.0°
Sets 00:44:46 0° 43° (NE) 3,477 12.6 -14.8°
